TimeCDT,TemperatureF,Dew PointF,Humidity,Sea Level PressureIn,VisibilityMPH,Wind Direction,Wind SpeedMPH,Gust SpeedMPH,PrecipitationIn,Events,Conditions,WindDirDegrees,DateUTC
12:52 AM,35.1,26.1,70,30.09,10.0,South,10.4,-,N/A,,Clear,190,2012-10-11 05:52:00
1:52 AM,36.0,26.1,67,30.08,10.0,South,9.2,-,N/A,,Clear,180,2012-10-11 06:52:00
2:52 AM,39.0,28.9,67,30.08,10.0,SSW,12.7,-,N/A,,Clear,200,2012-10-11 07:52:00
3:52 AM,39.0,28.9,67,30.06,10.0,South,12.7,-,N/A,,Clear,190,2012-10-11 08:52:00
4:52 AM,39.0,30.0,70,30.07,10.0,SSW,11.5,-,N/A,,Clear,200,2012-10-11 09:52:00
5:52 AM,39.0,30.9,73,30.06,10.0,SSW,12.7,-,N/A,,Clear,200,2012-10-11 10:52:00
6:52 AM,39.0,30.9,73,30.06,10.0,SSW,15.0,-,N/A,,Clear,200,2012-10-11 11:52:00
7:52 AM,39.9,30.9,70,30.08,10.0,SSW,11.5,-,N/A,,Clear,200,2012-10-11 12:52:00
8:52 AM,45.0,32.0,60,30.08,10.0,SSW,15.0,-,N/A,,Clear,210,2012-10-11 13:52:00
9:52 AM,52.0,33.1,49,30.08,10.0,SW,15.0,24.2,N/A,,Clear,220,2012-10-11 14:52:00
10:52 AM,57.0,34.0,42,30.07,10.0,SSW,17.3,-,N/A,,Clear,210,2012-10-11 15:52:00
11:52 AM,62.1,36.0,38,30.08,10.0,WSW,18.4,23.0,N/A,,Clear,250,2012-10-11 16:52:00
12:52 PM,66.0,36.0,33,30.07,10.0,West,19.6,25.3,N/A,,Clear,270,2012-10-11 17:52:00
1:52 PM,64.9,36.0,34,30.05,10.0,NW,15.0,20.7,N/A,,Clear,310,2012-10-11 18:52:00
2:52 PM,62.6,35.6,37,30.06,10.0,NW,15.0,-,N/A,,Partly Cloudy,320,2012-10-11 19:52:00
3:52 PM,60.1,33.1,36,30.09,10.0,NW,12.7,-,N/A,,Partly Cloudy,320,2012-10-11 20:52:00
4:52 PM,55.0,35.1,47,30.11,10.0,North,18.4,-,N/A,,Clear,360,2012-10-11 21:52:00
5:52 PM,51.8,33.8,50,30.13,10.0,North,21.9,26.5,N/A,,Overcast,350,2012-10-11 22:52:00
6:52 PM,48.9,33.1,54,30.18,10.0,North,19.6,25.3,N/A,,Overcast,350,2012-10-11 23:52:00
7:52 PM,46.4,33.8,62,30.19,10.0,North,11.5,-,N/A,,Overcast,360,2012-10-12 00:52:00
8:52 PM,46.0,28.9,51,30.23,10.0,North,13.8,-,N/A,,Mostly Cloudy,360,2012-10-12 01:52:00
10:52 PM,44.6,26.6,49,30.29,10.0,North,10.4,-,N/A,,Overcast,10,2012-10-12 03:52:00
11:52 PM,44.6,26.6,49,30.30,10.0,North,10.4,-,N/A,,Overcast,10,2012-10-12 04:52:00